TimeMDT,TemperatureF,Dew PointF,Humidity,Sea Level PressureIn,VisibilityMPH,Wind Direction,Wind SpeedMPH,Gust SpeedMPH,PrecipitationIn,Events,Conditions,WindDirDegrees,DateUTC
12:53 AM,53.1,30.9,43,29.87,10.0,SW,13.8,-,N/A,,Clear,220,2013-09-24 06:53:00
1:53 AM,53.1,32.0,45,29.86,10.0,SW,15.0,-,N/A,,Clear,230,2013-09-24 07:53:00
2:53 AM,50.0,32.0,50,29.87,10.0,SW,13.8,-,N/A,,Clear,220,2013-09-24 08:53:00
3:53 AM,52.0,33.1,49,29.88,10.0,SW,13.8,-,N/A,,Clear,220,2013-09-24 09:53:00
4:53 AM,53.1,33.1,47,29.86,10.0,SSW,15.0,-,N/A,,Clear,210,2013-09-24 10:53:00
5:53 AM,53.1,33.1,47,29.86,10.0,SW,12.7,-,N/A,,Clear,220,2013-09-24 11:53:00
6:53 AM,51.1,33.1,50,29.86,10.0,SSW,11.5,-,N/A,,Partly Cloudy,210,2013-09-24 12:53:00
7:53 AM,51.1,34.0,52,29.87,10.0,South,8.1,-,N/A,,Scattered Clouds,190,2013-09-24 13:53:00
8:53 AM,53.1,34.0,48,29.87,10.0,SSW,11.5,-,N/A,,Clear,200,2013-09-24 14:53:00
9:53 AM,57.9,34.0,41,29.84,10.0,SSW,8.1,-,N/A,,Partly Cloudy,210,2013-09-24 15:53:00
10:53 AM,57.9,34.0,41,29.83,10.0,SW,5.8,-,N/A,,Scattered Clouds,220,2013-09-24 16:53:00
11:53 AM,57.0,37.0,47,29.82,10.0,SSE,8.1,-,0.00,Rain,Light Rain,150,2013-09-24 17:53:00
12:53 PM,55.0,45.0,69,29.81,10.0,ESE,4.6,-,0.01,Rain,Light Rain,110,2013-09-24 18:53:00
1:53 PM,53.1,45.0,74,29.78,10.0,NW,5.8,-,0.01,Rain,Light Rain,320,2013-09-24 19:53:00
2:53 PM,53.1,44.1,71,29.78,10.0,WSW,4.6,-,0.00,Rain,Light Rain,250,2013-09-24 20:53:00
3:53 PM,54.0,43.0,66,29.75,10.0,SE,5.8,-,0.00,,Mostly Cloudy,130,2013-09-24 21:53:00
4:53 PM,54.0,43.0,66,29.73,10.0,SE,4.6,-,0.00,Rain,Light Rain,140,2013-09-24 22:53:00
5:53 PM,48.9,46.0,90,29.75,10.0,South,10.4,-,0.01,Rain,Light Rain,180,2013-09-24 23:53:00
6:53 PM,48.0,45.0,89,29.74,10.0,SSW,9.2,-,0.00,Rain,Light Rain,200,2013-09-25 00:53:00
7:53 PM,46.9,45.0,93,29.75,10.0,SSW,9.2,-,0.01,Rain,Light Rain,200,2013-09-25 01:53:00
8:53 PM,46.9,45.0,93,29.75,10.0,SSW,10.4,-,0.01,Rain,Light Rain,200,2013-09-25 02:53:00
9:53 PM,46.0,44.1,93,29.75,10.0,SSW,11.5,-,0.00,Rain,Light Rain,200,2013-09-25 03:53:00
10:53 PM,46.0,45.0,96,29.75,5.0,SW,9.2,-,0.01,Rain,Rain,220,2013-09-25 04:53:00
11:53 PM,46.0,45.0,96,29.75,10.0,SW,5.8,-,0.07,Rain,Light Rain,230,2013-09-25 05:53:00